This is the latest recevied weather packets stored in our database for station/object EA1IOK-1. If no packets are shown the sender has not sent any weather packets the latest 10 day(s).
| Time | Temp. | Humidity | Pressure | Rain* | Wind** | Luminosity | Snow |
|---|---|---|---|---|---|---|---|
| 1777979470 | 13.33° C | 100% | 1014.5 hPa | - | - | - | - |
| 1777978573 | 13.33° C | 100% | 1014.5 hPa | - | - | - | - |
| 1777977672 | 12.78° C | 100% | 1014.6 hPa | - | - | - | - |
| 1777976772 | 12.78° C | 100% | 1014.7 hPa | - | - | - | - |
| 1777975868 | 15.56° C | 100% | 1014.6 hPa | - | - | - | - |
| 1777974972 | 12.22° C | 100% | 1014.7 hPa | - | - | - | - |
| 1777974068 | 11.11° C | 100% | 1014.5 hPa | - | - | - | - |
| 1777973163 | 11.67° C | 100% | 1014.5 hPa | - | - | - | - |
| 1777972267 | 13.89° C | 100% | 1014.5 hPa | - | - | - | - |
| 1777971362 | 12.22° C | 100% | 1014.6 hPa | - | - | - | - |
| 1777970462 | 11.67° C | 100% | 1014.6 hPa | - | - | - | - |
| 1777969565 | 12.22° C | 100% | 1014.7 hPa | - | - | - | - |
| 1777968665 | 11.11° C | 100% | 1014.7 hPa | - | - | - | - |
| 1777967761 | 11.67° C | 100% | 1014.7 hPa | - | - | - | - |
| 1777966861 | 11.11° C | 100% | 1014.7 hPa | - | - | - | - |
| 1777965960 | 10° C | 100% | 1014.8 hPa | - | - | - | - |
| 1777965065 | 10.56° C | 100% | 1014.8 hPa | - | - | - | - |
| 1777964157 | 10.56° C | 100% | 1014.6 hPa | - | - | - | - |
| 1777963256 | 10° C | 100% | 1014.5 hPa | - | - | - | - |
| 1777962358 | 8.89° C | 100% | 1014.4 hPa | - | - | - | - |
| 1777961461 | 8.89° C | 100% | 1014.4 hPa | - | - | - | - |
| 1777960555 | 8.89° C | 100% | 1014.3 hPa | - | - | - | - |
| 1777959657 | 8.33° C | 100% | 1014.2 hPa | - | - | - | - |
| 1777958758 | 8.33° C | 100% | 1014.2 hPa | - | - | - | - |
| 1777957853 | 8.33° C | 100% | 1014.2 hPa | - | - | - | - |
* Rain since midnight (hover to see other rain measurements)
** Current wind speed in m/s (hover to see current wind gust speed)